Weather in Weimar

Germany     50°58′20″N   11°19′39″E
temp.,
°C
wind,
m/s
gust,
m/s
humid.,
%
clouds,
%
prec.,
mm/h
press.,
hPa
HPBL,
m
8 march, mon
mon801:00−1w387858 0.0 1021325
04:00−1wsw3595100 0.2 1021224
07:000wnw3698100 1.6 1022321
10:00+1n2390100 0.5 1023394
13:00+2ene3477100 0.8 1023671
16:00+3ne336292 0.1 10221082
19:00−1ene227064 0.1 102321
22:00−2se228074 0.0 102424
9 march, tue
tue901:00−2se127887 0.0 102321
04:00−2se1276100 0.0 102137
07:00−2s1178100 0.0 102125
10:00+2sw1262100 0.0 1021466
13:00+4wsw2354100 0.0 10201024
16:00+3wsw239299 0.1 1018302
19:00+1ssw2599100 2.3 1018255
22:00+2w3898100 0.6 1019382
10 march, wed
wed1001:00+1wsw349996 0.6 1018131
04:00+2wsw389898 0.4 1018380
07:00+2sw2495100 0.8 1019175
10:00+3w4693100 0.1 1020442
13:00+4sw4787100 0.1 1019563
16:00+7sw6874100 0.0 1017908
19:00+5ssw41284100 0.0 1015499
22:00+5ssw51377100 0.0 1014936
11 march, thu
thu1101:00+5ssw101687100 0.5 1011729
04:00+6sw81782100 0.3 1007815
07:00+7sw91882100 0.3 10051018
10:00+9sw111980100 0.0 10041061
13:00+11sw112173100 0.1 10011446
16:00+9wsw92373100 2.0 10011680
19:00+7wsw6158078 2.1 10031030
22:00+6wsw8187249 0.1 10051316
12 march, fri
fri1201:00+5wsw9197425 0.1 10061399
04:00+4wsw10187559 0.0 10071249
07:00+4wsw8157658 0.0 10111238
10:00+6wsw10146789 0.1 10121520
13:00+7wsw9136192 0.2 10121559
16:00+7wsw8126080 0.1 10111427
19:00+4ssw4117441 0.1 1011304
22:00+4ssw6137420 0.0 1011368